Home > Weather > Lund > Past weeks

Flag for Sweden Weather for the Past 2 Weeks in Lund, Sweden

Now
46 °F

Sunny.


Feels Like: 44 °F
Forecast: 41 / 57 °F
Wind: 5 mph from Northwest

Location: Malmo / Sturup

Current Time: Apr 30, 2016 at 9:55:18 PM

Latest Report: Apr 30, 2016 at 9:20 PM


Visibility: 10 mi

Pressure: 30.18 "Hg

Humidity: 82%

Dew Point: 41 °F

Location of LundLocation

Historic Weather in Lund — Graph

°F

Lund Temperature Yesterday

Maximum temperature yesterday: 50 °F (at 2:50 PM)
Minimum temperature yesterday: 34 °F (at 5:20 AM)
Average temperature yesterday: 44 °F

High & Low Weather Summary for the Past Weeks

 TemperatureHumidityPressure
High54 °F (Apr 16, 2:50 PM)100% (Apr 15, 10:50 PM)30.27 "Hg (Apr 15, 10:50 PM)
Low27 °F (Apr 24, 5:20 AM)32% (Apr 22, 3:50 PM)29.33 "Hg (Apr 27, 2:50 AM)
Average43 °F77%29.81 "Hg
* Reported Apr 15 8:20 PM — Apr 30 8:20 PM, Lund, Weather by CustomWeather, © 2016

Note: Actual official high and low records may vary slightly from our data, if they occured in-between our weather recording intervals... More about our weather records

Advertising

Lund Weather History for the Previous 24 Hours

Scroll right to see more
 ConditionsComfort  
Time TempWeatherWind HumidityBarometerVisibility
8:20 PM
Sat, Apr 30
48 °FSunny.No wind76%30.15 "Hg10 mi
7:50 PM50 °FSunny.5 mph67%30.15 "Hg10 mi
7:20 PM50 °FSunny.5 mph71%30.15 "Hg10 mi
6:50 PM50 °FSunny.6 mph71%30.15 "Hg10 mi
6:20 PM52 °FSunny.7 mph67%30.12 "Hg10 mi
5:50 PM54 °FSunny.6 mph58%30.12 "Hg10 mi
5:20 PM52 °FSunny.7 mph67%30.12 "Hg10 mi
4:50 PM52 °FPassing clouds.7 mph67%30.12 "HgN/A
4:20 PM52 °FSunny.7 mph67%30.12 "Hg10 mi
3:50 PM52 °FSunny.10 mph67%30.12 "Hg10 mi
3:20 PM52 °FPassing clouds.12 mph67%30.12 "HgN/A
2:50 PM50 °FSunny.10 mph71%30.12 "Hg10 mi
2:20 PM50 °FSunny.12 mph67%30.09 "Hg10 mi
1:50 PM50 °FSunny.12 mph67%30.12 "Hg10 mi
1:20 PM48 °FSunny.12 mph71%30.12 "Hg10 mi
12:50 PM48 °FSunny.12 mph71%30.09 "Hg10 mi
12:20 PM48 °FSunny.13 mph66%30.09 "Hg10 mi
11:50 AM50 °FSunny.14 mph62%30.09 "Hg10 mi
11:20 AM50 °FSunny.15 mph67%30.09 "Hg10 mi
10:20 AM50 °FSunny.14 mph62%30.09 "Hg10 mi
9:50 AM50 °FSunny.15 mph62%30.09 "Hg10 mi
9:20 AM48 °FSunny.15 mph66%30.09 "Hg10 mi
8:50 AM46 °FSunny.13 mph71%30.09 "Hg10 mi
8:20 AM46 °FSunny.12 mph71%30.09 "Hg10 mi
7:50 AM46 °FSunny.13 mph71%30.07 "Hg10 mi
7:20 AM46 °FSunny.14 mph71%30.07 "Hg10 mi
6:50 AM46 °FSunny.12 mph71%30.07 "Hg10 mi
6:20 AM46 °FClear.12 mph71%30.07 "Hg10 mi
5:50 AM46 °FClear.13 mph71%30.07 "Hg10 mi
5:20 AM46 °FClear.14 mph71%30.07 "Hg10 mi
4:20 AM46 °FClear.14 mph66%30.07 "Hg10 mi
3:50 AM46 °FClear.15 mph71%30.07 "Hg10 mi
3:20 AM46 °FClear.13 mph71%30.07 "Hg10 mi
2:50 AM48 °FClear.15 mph62%30.07 "Hg10 mi
2:20 AM48 °FClear.17 mph62%30.07 "Hg10 mi
1:50 AM48 °FClear.14 mph62%30.07 "Hg10 mi
1:20 AM48 °FClear.12 mph66%30.07 "Hg10 mi
12:50 AM48 °FClear.10 mph66%30.07 "Hg10 mi
12:20 AM48 °FClear.12 mph66%30.07 "Hg10 mi
11:50 PM
Fri, Apr 29
46 °FClear.12 mph71%30.07 "Hg10 mi
11:20 PM46 °FClear.12 mph76%30.07 "Hg10 mi
10:50 PM46 °FClear.13 mph71%30.07 "Hg10 mi
10:20 PM46 °FClear.12 mph71%30.07 "Hg10 mi
9:50 PM46 °FClear.14 mph71%30.07 "Hg10 mi
9:20 PM46 °FSunny.15 mph71%30.07 "Hg10 mi
Weather by CustomWeather, © 2016

See weather overviewHow to use our weather pages